This is the latest recevied weather packets stored in our database for station/object IZ6UQU-13. If no packets are shown the sender has not sent any weather packets the latest 1 day(s).
| Time | Temp. | Humidity | Pressure | Rain* | Wind** | Luminosity | Snow |
|---|---|---|---|---|---|---|---|
| 1778042403 | 10.56° C | 99% | 955.3 hPa | 0 mm | - | - | - |
| 1778042102 | 10.56° C | 99% | 955.2 hPa | 0 mm | - | - | - |
| 1778041202 | 10.56° C | 99% | 955.2 hPa | 2.03 mm | - | - | - |
| 1778040902 | 10.56° C | 99% | 955.3 hPa | 2.03 mm | - | - | - |
| 1778040602 | 10.56° C | 99% | 955.3 hPa | 2.03 mm | - | - | - |
| 1778040302 | 10.56° C | 99% | 955.2 hPa | 2.03 mm | - | - | - |
| 1778039702 | 10.56° C | 99% | 955.4 hPa | 2.03 mm | - | - | - |
| 1778039402 | 10.56° C | 99% | 955.4 hPa | 3.05 mm | - | - | - |
| 1778039102 | 10.56° C | 99% | 955.4 hPa | 3.05 mm | - | - | - |
| 1778038802 | 10.56° C | 98% | 955.4 hPa | 5.08 mm | - | - | - |
| 1778038502 | 10.56° C | 98% | 955.4 hPa | 6.1 mm | - | - | - |
| 1778037902 | 10.56° C | 98% | 955.3 hPa | 5.08 mm | - | - | - |
| 1778037002 | 10.56° C | 97% | 955.4 hPa | 4.06 mm | - | - | - |
| 1778036701 | 10.56° C | 96% | 955.4 hPa | 4.06 mm | - | - | - |
| 1778036402 | 10.56° C | 96% | 955.4 hPa | 4.06 mm | - | - | - |
| 1778035202 | 11.11° C | 94% | 955.5 hPa | 1.02 mm | - | - | - |
| 1778032201 | 11.11° C | 92% | 955.4 hPa | 0 mm | - | - | - |
| 1778031301 | 11.11° C | 91% | 955.4 hPa | 0 mm | - | - | - |
| 1778030101 | 11.67° C | 90% | 955.7 hPa | 0 mm | - | - | - |
| 1778029501 | 11.67° C | 90% | 955.7 hPa | 0 mm | - | - | - |
| 1778028601 | 11.67° C | 90% | 955.7 hPa | 0 mm | - | - | - |
| 1778028301 | 11.67° C | 90% | 955.8 hPa | 0 mm | - | - | - |
| 1778027701 | 11.67° C | 90% | 955.9 hPa | 0 mm | - | - | - |
| 1778027101 | 11.11° C | 91% | 955.9 hPa | 0 mm | - | - | - |
| 1778024710 | 11.67° C | 90% | 956.1 hPa | 0 mm | - | - | - |
* Rain latest hour (hover to see other rain measurements)
** Current wind speed in m/s (hover to see current wind gust speed)